Temperature
17 16 16 17 17 18 18 18 18 18 19 19 18 18 18 19 19 19 19 20 20 20 21 21 21 20 20 20 19 19 18 18 18 17 17 16 16 16 15 15 15 15 15 14
16 16 17 18 18 18 18 18 18 18 19 19 18 18 18 18 18 18 19 20 20 20 21 21 21 20 20 20 19 19 19 18 18 17 17 16 16 16 15 15 15 15 15 14
17 17 18 18 18 18 18 18 18 18 19 18 18 18 18 18 18 18 19 19 20 20 21 21 21 20 20 20 19 19 19 18 18 17 17 16 16 16 15 15 15 15 15 14
17 18 18 18 18 18 18 18 19 19 18 17 18 18 18 17 17 17 18 19 20 20 20 20 21 20 20 20 19 19 19 18 18 17 17 17 16 16 15 15 15 15 15 14
17 18 18 18 18 18 18 18 18 18 17 17 17 17 17 17 18 17 17 18 19 20 20 20 20 20 20 20 19 19 18 18 18 17 17 17 16 16 16 15 15 15 15 15
18 18 18 18 18 18 18 18 17 16 17 17 18 17 17 16 18 18 17 18 19 20 20 20 20 20 20 19 19 19 18 18 18 17 17 17 16 16 16 15 15 15 15 15
18 18 18 18 18 17 17 17 17 17 17 17 17 17 17 18 18 18 18 18 19 19 20 20 20 20 19 19 19 19 18 18 17 17 17 17 16 16 16 15 15 15 15 15
17 17 18 18 18 17 17 17 17 17 17 16 17 17 17 18 18 18 18 18 19 19 19 20 20 19 19 19 19 18 18 18 17 17 17 16 16 16 16 15 15 15 15 15
17 17 18 18 18 17 17 17 17 16 17 17 17 17 17 17 17 17 17 18 18 19 19 19 19 19 19 19 18 18 18 18 17 17 17 16 16 16 16 15 15 15 15 15
17 17 18 18 18 17 17 16 15 16 16 17 17 17 17 17 17 16 16 17 18 19 19 19 19 19 18 18 18 18 18 17 17 17 16 16 16 16 16 15 15 15 15 15
17 17 18 18 18 18 17 17 16 15 16 16 17 17 18 18 17 16 16 17 18 19 19 19 18 18 18 18 18 18 17 17 17 16 16 16 16 16 15 15 15 15 15 14
17 16 16 18 19 19 18 18 16 17 16 16 16 17 19 17 17 17 17 18 18 19 19 18 18 18 18 18 17 17 17 17 16 16 16 16 16 15 15 15 15 14 14 14
17 16 17 18 18 19 19 18 17 16 15 15 16 18 17 17 17 17 17 18 18 18 18 18 18 18 17 17 17 17 17 17 16 16 16 16 15 15 15 15 14 14 14 14
18 16 17 18 18 18 19 19 17 17 16 16 16 18 17 17 16 16 17 18 18 18 18 18 18 17 17 17 17 17 17 16 16 16 16 15 15 15 14 14 14 14 14 14
18 18 18 18 19 19 19 19 18 18 17 17 18 17 18 17 16 17 17 17 17 17 18 18 18 17 17 17 17 17 16 16 16 16 15 15 15 14 14 14 14 13 13 13
17 18 18 19 19 19 19 19 19 18 18 18 18 18 18 18 17 17 16 17 17 17 18 18 18 17 17 17 17 17 16 16 16 15 15 15 14 14 14 14 13 13 13 13
16 17 18 18 18 19 19 19 19 19 18 18 18 19 17 16 16 17 17 17 18 18 18 18 18 18 18 17 17 17 16 16 15 15 15 14 14 14 13 13 13 13 12 12
16 16 15 17 19 19 19 19 19 19 19 18 18 18 17 18 19 19 19 19 19 19 18 18 18 18 18 17 17 16 16 16 15 15 14 14 14 13 13 13 13 12 12 12
15 15 15 15 17 18 19 19 19 19 19 18 18 18 18 18 17 17 19 20 20 20 20 19 18 18 18 17 17 16 16 15 15 14 14 14 13 13 13 13 12 12 12 12
14 15 15 15 17 18 19 20 20 19 19 19 18 17 16 17 16 17 20 20 19 19 19 19 18 17 17 17 16 16 15 15 15 14 14 13 13 13 12 12 12 11 11 11
15 15 15 15 16 17 18 19 19 19 19 21 20 19 17 17 20 21 21 20 20 19 19 18 18 17 17 17 16 15 15 15 14 14 13 13 12 12 12 11 11 11 11 11
15 14 14 13 16 17 18 18 18 19 21 21 21 20 20 21 21 21 21 20 19 19 18 18 18 17 17 16 16 15 15 15 14 13 13 12 12 12 11 11 11 10 10 10
14 15 14 15 17 18 18 19 21 21 21 22 22 22 21 21 20 20 20 20 19 19 18 18 17 17 16 16 15 15 15 14 13 13 12 12 12 11 11 11 10 10 10 10
13 13 13 13 14 17 18 20 21 21 22 22 22 22 21 21 21 20 20 19 19 18 18 17 17 16 16 15 15 15 14 14 13 13 12 12 11 11 11 10 10 10 10 9
14 12 13 14 14 16 19 21 21 22 22 22 22 21 21 21 20 20 20 19 19 18 18 17 17 16 16 15 15 14 14 13 13 12 12 11 11 11 10 10 10 10 9 9
12 13 14 15 17 16 19 21 21 21 22 22 21 21 21 21 20 20 19 19 18 18 17 17 16 16 16 15 14 14 13 13 12 12 11 11 11 11 10 10 10 9 9 9
Wind_Speed
2 4 3 3 3 4 4 4 4 1 1 4 5 3 1 1 3 3 3 3 3 3 1 2 4 6 7 6 6 6 6 5 4 3 3 3 2 2 2 3 5 5 5 6
4 0 3 5 4 5 4 5 3 2 3 3 5 4 2 2 1 3 4 4 4 2 2 3 4 4 6 6 6 6 6 5 4 3 2 2 2 1 1 2 5 6 6 6
4 3 3 5 5 4 3 4 4 3 3 5 5 4 2 1 1 1 1 2 3 4 4 3 4 4 5 5 6 6 5 5 4 4 4 3 3 3 3 4 4 5 6 6
2 2 4 6 4 6 3 4 5 4 4 2 2 2 3 1 1 0 1 1 2 3 3 4 4 4 4 5 5 6 6 5 4 4 4 4 3 2 1 2 2 4 6 6
2 3 5 5 5 6 4 4 4 3 4 3 3 3 4 1 3 4 4 3 2 3 5 5 4 4 4 5 6 6 6 5 4 4 5 5 4 2 1 2 3 4 4 6
1 1 3 4 4 5 7 6 5 4 3 1 2 3 5 5 7 6 5 4 3 3 4 4 4 5 5 5 6 6 7 5 4 5 4 5 4 3 3 3 3 3 3 4
2 1 1 3 5 4 4 5 3 1 1 3 2 3 7 6 6 7 8 6 4 4 5 5 5 5 5 6 6 6 7 5 4 4 4 3 3 3 2 1 1 2 3 3
3 1 3 3 5 6 5 6 6 5 5 2 1 4 5 3 2 5 6 6 5 5 4 5 5 5 6 6 6 6 7 5 4 4 3 3 3 2 1 1 1 1 1 2
5 2 0 2 3 8 6 4 4 5 4 2 3 4 5 1 3 5 7 7 7 6 5 5 5 5 6 6 6 6 7 5 5 4 4 4 3 3 2 2 2 1 2 2
6 3 1 3 4 3 4 6 5 5 5 2 3 4 5 7 8 7 8 8 7 6 6 5 5 5 5 5 5 6 6 6 4 4 4 3 2 2 2 3 3 2 3 3
4 4 1 3 5 7 4 4 4 4 5 6 3 6 7 11 12 12 11 10 9 9 8 6 5 5 5 5 6 6 6 6 5 4 4 4 3 3 3 3 2 2 2 3
4 4 2 4 4 6 6 7 7 5 4 4 4 6 3 8 10 12 11 9 8 7 7 6 6 6 6 6 5 6 5 5 4 4 4 4 3 4 4 3 3 3 3 3
7 5 3 2 2 2 4 5 5 5 5 5 5 6 2 3 7 9 10 10 9 8 7 6 6 6 6 6 5 5 5 5 4 5 5 5 4 4 3 3 3 3 3 4
6 5 6 8 7 6 5 6 7 6 5 5 7 7 4 5 8 9 10 11 10 9 9 8 7 6 6 6 6 6 4 4 5 5 5 4 3 2 2 2 3 3 3 4
5 4 5 5 4 5 6 7 9 8 9 9 9 9 10 11 12 12 11 11 11 10 10 10 9 7 7 6 6 5 5 4 5 6 5 3 2 3 3 3 3 3 4 4
4 4 3 2 3 5 5 7 10 9 7 7 5 8 8 5 8 9 12 14 14 13 12 11 10 9 9 8 7 7 6 5 5 6 5 3 3 4 3 3 3 4 4 4
5 6 4 3 2 1 5 9 10 8 8 9 11 11 6 7 13 16 16 16 16 15 13 13 12 11 10 9 9 9 7 6 6 6 4 4 4 3 3 3 4 4 3 3
8 6 4 2 2 5 9 4 7 8 9 10 8 7 11 12 10 9 11 16 15 14 14 13 11 10 9 8 8 8 7 7 6 5 4 4 4 3 2 3 3 2 2 2
5 8 5 4 4 6 9 5 7 8 8 9 10 8 6 6 5 2 8 12 14 15 12 11 11 10 10 10 10 9 8 7 6 5 5 4 4 4 3 2 1 1 1 2
5 5 6 5 4 6 9 4 4 5 6 7 10 11 10 11 6 8 10 11 11 10 10 11 10 9 10 10 10 11 9 7 7 6 5 4 4 4 3 2 1 0 0 0
4 3 5 5 5 8 9 3 7 5 9 5 10 12 15 13 9 5 11 11 11 11 11 12 12 11 11 11 11 10 9 8 7 6 5 4 4 4 3 2 1 1 0 1
8 7 6 6 5 9 5 7 9 9 3 4 9 11 13 9 4 7 11 12 13 12 11 12 12 10 9 10 11 10 9 7 6 6 5 4 3 3 3 2 1 1 1 1
8 9 7 9 9 6 4 8 6 3 4 5 7 8 10 8 7 8 10 12 12 13 12 11 12 11 9 9 11 11 9 7 7 6 5 4 3 2 2 3 2 1 0 0
5 3 4 5 8 7 7 6 5 5 5 4 6 7 10 9 9 9 10 11 11 11 12 11 12 12 10 9 9 9 8 8 8 7 5 4 3 2 2 2 2 2 2 2
5 6 4 5 7 7 6 6 6 4 4 3 4 6 9 10 9 10 11 11 11 10 10 11 13 13 12 10 9 8 8 9 8 7 5 4 4 3 3 2 3 4 4 5
5 7 7 7 7 5 6 4 2 4 5 6 6 5 6 9 10 10 10 10 10 11 10 10 10 10 10 10 9 8 8 9 9 6 5 4 4 3 3 2 3 5 6 7
Wind_Direction
53 85 143 164 147 136 136 121 115 123 78 105 108 92 60 108 144 163 181 179 194 226 242 127 134 136 130 129 129 130 119 116 110 98 95 88 63 23 12 11 18 24 27 31
59 200 192 139 135 123 118 109 99 57 57 99 94 68 51 65 174 189 190 187 184 175 107 106 118 125 135 141 139 133 130 127 121 112 113 112 110 65 3 353 10 19 19 19
160 218 168 135 129 122 123 149 160 140 79 61 85 32 14 352 24 87 138 168 175 167 161 144 126 128 132 141 148 143 133 127 122 110 94 74 55 35 17 8 0 360 9 18
195 224 162 142 154 144 168 179 165 142 111 58 89 144 270 272 304 212 210 178 192 169 158 152 143 137 143 151 142 133 128 121 113 111 106 103 92 67 343 329 340 351 11 17
204 174 159 159 172 156 162 130 115 113 112 80 44 130 265 225 232 231 223 201 189 176 166 162 157 144 132 133 132 128 120 111 106 105 109 103 93 86 12 7 11 7 4 13
233 192 157 154 122 132 128 94 66 48 78 135 217 161 246 220 213 203 197 187 177 167 147 140 123 112 106 110 120 125 120 110 106 104 102 107 107 92 61 32 17 3 356 357
21 19 39 127 110 93 113 115 103 76 39 238 224 190 239 238 213 190 183 180 167 152 143 136 124 126 125 124 126 130 127 120 113 107 102 107 110 103 90 55 22 9 1 354
144 217 201 178 163 153 171 166 160 169 188 236 217 228 253 274 197 152 151 152 146 146 147 142 142 142 140 134 131 133 133 129 121 116 111 99 100 100 87 68 56 1 324 315
163 208 247 172 134 131 144 170 156 124 118 115 261 282 306 140 134 141 145 148 161 163 156 147 141 139 141 140 142 143 137 128 124 121 110 97 92 93 84 57 45 9 335 338
149 150 205 163 92 52 150 145 117 126 140 183 266 254 226 205 193 180 171 174 174 164 154 148 147 145 144 141 131 124 125 125 122 121 117 108 96 87 80 68 41 15 359 360
145 140 130 143 177 178 144 139 132 120 144 153 207 257 221 197 188 185 189 184 177 171 166 160 151 141 132 122 121 119 118 114 111 113 111 99 85 77 73 62 28 13 11 11
151 123 157 230 232 183 176 175 157 154 188 172 174 261 269 200 188 182 180 178 174 165 158 153 144 134 127 125 124 122 122 120 122 119 110 100 86 76 69 50 27 28 28 18
147 124 103 35 350 202 192 177 167 134 124 155 173 258 325 167 172 178 172 170 168 161 154 147 141 141 143 140 135 129 128 128 122 114 106 94 82 78 70 51 37 37 37 30
135 133 166 189 206 189 193 183 165 142 159 190 215 239 267 194 183 181 175 171 168 167 164 159 156 157 155 151 145 138 132 130 125 114 107 100 92 90 78 59 48 42 44 42
135 171 201 225 219 192 206 196 181 187 190 190 219 219 233 208 193 184 173 166 166 172 173 172 168 167 162 155 149 143 137 132 127 118 113 117 108 90 74 60 48 45 45 42
136 164 169 249 230 211 228 217 198 206 202 211 225 247 239 186 155 164 173 174 179 182 182 178 173 170 169 166 159 150 145 143 131 123 124 117 100 83 69 56 49 47 37 29
151 144 143 239 281 93 255 223 199 202 200 185 210 229 183 169 183 187 185 185 187 185 181 180 179 178 175 172 163 159 156 143 132 129 124 116 108 94 74 68 62 49 34 35
147 139 143 154 112 228 244 241 196 205 223 207 215 214 190 194 194 191 185 185 187 184 181 181 177 173 169 162 155 148 142 140 136 134 132 129 122 111 93 81 70 48 43 39
142 138 130 141 193 271 289 255 183 188 245 216 209 212 186 130 99 224 202 192 189 184 179 175 171 165 159 157 153 142 140 140 139 146 150 150 142 132 118 106 92 70 61 29
81 110 125 139 169 232 250 250 169 136 264 232 193 190 162 136 166 230 198 181 176 168 163 159 153 148 155 158 150 145 149 150 160 169 168 161 155 149 152 162 164 150 117 341
114 109 148 168 205 253 251 228 128 165 240 220 182 178 169 183 202 189 160 170 168 161 158 154 152 158 164 158 151 151 156 171 176 164 154 153 159 164 167 159 155 149 107 17
172 167 183 158 190 249 232 149 179 216 239 185 181 181 184 193 160 143 157 162 158 155 153 155 157 159 158 158 155 157 173 177 159 150 150 157 165 168 150 143 143 135 120 30
193 189 187 190 211 240 213 211 234 215 216 208 188 187 178 172 173 161 161 161 162 161 160 158 157 155 158 165 163 167 179 164 154 151 160 169 167 168 160 162 174 186 189 225
247 170 164 236 262 259 257 256 257 228 225 221 190 174 168 173 168 163 161 162 162 162 162 158 154 159 169 175 175 174 166 160 155 162 173 176 176 189 194 192 192 196 218 236
221 167 187 245 271 293 283 246 241 233 220 198 169 171 172 165 166 167 167 169 168 165 163 163 166 171 175 174 178 175 165 159 162 171 179 184 189 195 210 226 222 220 227 216
195 179 181 224 231 206 256 279 237 208 212 192 168 162 166 169 171 167 170 170 166 165 162 164 168 170 172 172 179 179 172 166 167 176 188 192 194 199 203 224 275 264 249 263
Height
1510 1515 1519 1518 1518 1520 1522 1526 1529 1529 1525 1528 1531 1533 1532 1532 1533 1534 1535 1537 1539 1540 1542 1544 1545 1548 1550 1552 1553 1555 1555 1556 1556 1557 1557 1557 1557 1556 1555 1554 1553 1552 1550 1549
1515 1518 1515 1515 1517 1520 1523 1528 1531 1529 1526 1529 1534 1536 1534 1534 1534 1535 1535 1537 1538 1540 1542 1543 1545 1548 1550 1552 1553 1555 1556 1557 1557 1558 1558 1558 1557 1557 1556 1555 1554 1553 1552 1550
1516 1516 1513 1515 1519 1522 1525 1529 1531 1532 1530 1531 1535 1541 1538 1536 1535 1536 1536 1537 1538 1540 1541 1543 1545 1547 1549 1551 1553 1555 1556 1557 1558 1558 1558 1558 1558 1558 1557 1556 1555 1554 1553 1552
1514 1512 1513 1516 1519 1521 1529 1524 1526 1529 1537 1543 1540 1552 1541 1538 1537 1536 1536 1537 1538 1540 1541 1543 1545 1547 1549 1551 1553 1555 1556 1558 1558 1559 1559 1559 1559 1558 1558 1557 1556 1555 1554 1553
1514 1512 1514 1517 1518 1519 1524 1523 1527 1531 1538 1545 1544 1550 1547 1539 1538 1536 1535 1536 1537 1539 1540 1542 1544 1546 1549 1551 1553 1555 1556 1557 1558 1559 1559 1559 1559 1559 1558 1557 1557 1556 1555 1554
1511 1511 1512 1514 1516 1518 1522 1527 1531 1536 1541 1553 1547 1551 1549 1540 1534 1532 1533 1534 1536 1538 1540 1542 1544 1546 1548 1550 1552 1554 1556 1557 1558 1559 1559 1559 1559 1559 1558 1558 1557 1556 1555 1554
1515 1512 1511 1512 1518 1522 1524 1535 1548 1552 1556 1555 1545 1547 1544 1530 1527 1528 1530 1532 1535 1537 1539 1541 1543 1546 1548 1550 1552 1554 1555 1557 1558 1559 1559 1559 1559 1559 1559 1558 1557 1557 1556 1555
1521 1522 1513 1512 1515 1521 1525 1531 1546 1555 1557 1555 1546 1547 1536 1526 1525 1526 1529 1531 1534 1536 1538 1541 1543 1545 1547 1549 1551 1553 1555 1556 1558 1558 1559 1559 1559 1559 1559 1558 1558 1557 1556 1555
1519 1520 1511 1510 1512 1516 1526 1529 1529 1541 1548 1554 1550 1542 1531 1525 1525 1526 1528 1530 1533 1535 1538 1540 1543 1545 1547 1549 1551 1553 1555 1556 1557 1558 1559 1559 1559 1559 1558 1558 1558 1557 1556 1555
1510 1518 1513 1511 1512 1516 1519 1524 1534 1541 1552 1557 1550 1544 1537 1527 1525 1525 1526 1528 1531 1534 1537 1540 1542 1544 1547 1549 1551 1553 1554 1556 1557 1558 1558 1558 1559 1558 1558 1558 1557 1556 1556 1555
1507 1516 1517 1514 1515 1518 1522 1526 1529 1537 1539 1552 1556 1543 1517 1516 1517 1520 1522 1525 1529 1532 1535 1538 1541 1544 1546 1548 1550 1552 1553 1555 1556 1557 1557 1558 1558 1558 1557 1557 1557 1556 1555 1555
1506 1515 1521 1516 1509 1508 1512 1517 1524 1534 1540 1542 1546 1537 1509 1510 1512 1515 1519 1523 1527 1531 1534 1537 1540 1543 1545 1547 1549 1551 1553 1554 1555 1556 1557 1557 1557 1557 1557 1556 1556 1555 1555 1554
1503 1513 1524 1523 1520 1513 1512 1513 1517 1523 1534 1543 1544 1531 1509 1508 1511 1513 1517 1521 1525 1529 1533 1536 1539 1541 1544 1546 1548 1550 1552 1553 1554 1555 1556 1556 1556 1556 1556 1555 1555 1554 1554 1553
1498 1508 1516 1522 1517 1510 1510 1511 1514 1520 1532 1536 1532 1522 1512 1510 1510 1512 1515 1519 1523 1527 1531 1534 1537 1540 1542 1545 1547 1549 1551 1552 1553 1554 1555 1555 1555 1555 1555 1554 1554 1553 1553 1552
1496 1505 1505 1505 1502 1504 1504 1505 1509 1513 1516 1522 1517 1515 1506 1504 1505 1508 1512 1516 1521 1524 1528 1531 1534 1537 1540 1543 1545 1547 1549 1551 1552 1553 1553 1554 1554 1554 1554 1553 1553 1552 1552 1551
1495 1501 1503 1504 1500 1502 1503 1501 1504 1506 1507 1509 1508 1508 1498 1499 1503 1507 1510 1513 1516 1520 1524 1528 1531 1535 1538 1540 1543 1546 1548 1550 1551 1552 1552 1553 1553 1553 1553 1552 1552 1551 1550 1550
1496 1501 1507 1510 1503 1502 1507 1497 1498 1499 1498 1501 1504 1498 1495 1498 1499 1500 1503 1507 1510 1514 1519 1523 1527 1531 1535 1538 1541 1544 1546 1548 1549 1550 1551 1551 1552 1552 1551 1551 1551 1550 1549 1548
1494 1500 1508 1511 1508 1516 1498 1485 1486 1489 1489 1489 1488 1487 1488 1489 1491 1495 1498 1501 1506 1511 1515 1520 1524 1528 1532 1536 1539 1542 1544 1546 1547 1548 1549 1550 1550 1550 1550 1550 1549 1548 1548 1547
1488 1497 1509 1514 1514 1509 1493 1483 1483 1488 1487 1481 1483 1484 1486 1489 1493 1495 1496 1498 1501 1506 1511 1516 1521 1525 1529 1533 1537 1539 1542 1543 1545 1546 1547 1548 1548 1548 1548 1548 1547 1547 1546 1545
1491 1493 1505 1513 1512 1513 1492 1477 1477 1482 1488 1475 1476 1479 1483 1487 1496 1491 1490 1494 1499 1504 1509 1514 1519 1523 1527 1531 1534 1537 1539 1541 1542 1544 1545 1546 1546 1546 1546 1546 1546 1545 1544 1543
1496 1500 1504 1510 1509 1500 1479 1475 1478 1492 1485 1470 1471 1473 1477 1479 1480 1481 1486 1490 1495 1501 1506 1511 1516 1520 1524 1528 1531 1534 1536 1538 1540 1542 1542 1543 1544 1544 1544 1544 1543 1543 1542 1541
1492 1499 1503 1507 1508 1499 1472 1474 1477 1474 1467 1467 1468 1469 1472 1474 1477 1480 1484 1487 1492 1497 1503 1508 1512 1517 1521 1525 1528 1531 1533 1536 1538 1539 1540 1541 1541 1541 1542 1541 1541 1540 1539 1538
1484 1483 1486 1487 1483 1471 1468 1467 1466 1466 1466 1465 1466 1468 1470 1473 1476 1479 1482 1486 1490 1495 1500 1504 1509 1514 1518 1522 1525 1528 1530 1533 1535 1536 1537 1538 1539 1539 1539 1539 1538 1537 1537 1535
1477 1476 1478 1480 1472 1466 1465 1464 1464 1464 1464 1465 1465 1467 1469 1471 1474 1477 1480 1484 1488 1492 1497 1501 1506 1510 1514 1518 1522 1525 1528 1530 1531 1533 1534 1535 1535 1536 1536 1535 1535 1534 1533 1532
1471 1474 1476 1474 1467 1463 1461 1460 1461 1462 1462 1463 1465 1466 1468 1470 1472 1475 1478 1481 1485 1490 1494 1499 1503 1507 1511 1515 1518 1522 1524 1526 1528 1529 1530 1531 1532 1532 1532 1532 1532 1531 1530 1529
1467 1468 1471 1468 1461 1461 1459 1459 1460 1460 1461 1462 1463 1465 1467 1469 1471 1474 1476 1480 1483 1487 1492 1496 1500 1504 1508 1512 1515 1518 1520 1522 1524 1525 1526 1527 1528 1528 1528 1528 1528 1527 1527 1525